Overview Statistics Trail Chart Weather Telemetry Raw packets
 

This is the latest recevied weather packets stored in our database for station/object SV1JSO-13. If no packets are shown the sender has not sent any weather packets the latest 10 day(s).

<< 99 100 101 102 103 104 105 >>
Time Temp. Humidity Pressure Rain* Wind** Luminosity Snow
1787919900 33.89° C 38% 1008.1 hPa 0 mm - 609 W/m² -
1787919600 33.89° C 38% 1008 hPa 0 mm - 618 W/m² -
1787919301 34.44° C 36% 1008 hPa 0 mm - 628 W/m² -
1787919000 33.89° C 37% 1008.1 hPa 0 mm - 641 W/m² -
1787918700 33.33° C 38% 1008.1 hPa 0 mm - 647 W/m² -
1787918400 33.89° C 37% 1008.2 hPa 0 mm - 654 W/m² -
1787918100 33.89° C 37% 1008.3 hPa 0 mm - 656 W/m² -
1787917800 33.33° C 38% 1008.3 hPa 0 mm - 666 W/m² -
1787917500 32.78° C 44% 1008.3 hPa 0 mm - 678 W/m² -
1787917200 33.33° C 42% 1008.2 hPa 0 mm - 689 W/m² -
1787916900 32.22° C 48% 1008.3 hPa 0 mm - 692 W/m² -
1787916600 32.22° C 45% 1008.2 hPa 0 mm - 695 W/m² -
1787916300 32.22° C 44% 1008.1 hPa 0 mm - 695 W/m² -
1787916000 32.22° C 45% 1008.2 hPa 0 mm - 702 W/m² -
1787915700 31.67° C 45% 1008.3 hPa 0 mm - 705 W/m² -
1787915403 31.67° C 46% 1008.3 hPa 0 mm - 707 W/m² -
1787915100 32.22° C 46% 1008.4 hPa 0 mm - 714 W/m² -
1787914800 31.67° C 46% 1008.5 hPa 0 mm - 715 W/m² -
1787914500 31.67° C 43% 1008.5 hPa 0 mm - 719 W/m² -
1787914200 31.11° C 43% 1008.4 hPa 0 mm - 723 W/m² -
1787913900 31.67° C 43% 1008.5 hPa 0 mm - 726 W/m² -
1787913600 31.11° C 45% 1008.5 hPa 0 mm - 727 W/m² -
1787913300 31.11° C 44% 1008.5 hPa 0 mm - 728 W/m² -
1787913000 31.11° C 45% 1008.5 hPa 0 mm - 725 W/m² -
1787912700 30.56° C 46% 1008.6 hPa 0 mm - 726 W/m² -

* Rain latest hour (hover to see other rain measurements)
** Current wind speed in m/s (hover to see current wind gust speed)